Stations météo

réclame
Mon MeteoGroup
Bologna/Borgo Panigale, Italie (16140): Température de l'air & dewpoint: 17.10.2018 08:00:00 - 23.10.2018 08:00:00 (CEST)Bologna/Borgo Panigale, Italie (16140): Vitesse du vent: 17.10.2018 08:00:00 - 23.10.2018 08:00:00 (CEST)Bologna/Borgo Panigale, Italie (16140): Direction du vent: 17.10.2018 08:00:00 - 23.10.2018 08:00:00 (CEST)Bologna/Borgo Panigale, Italie (16140): reduced air pressure: 17.10.2018 08:00:00 - 23.10.2018 08:00:00 (CEST)Bologna/Borgo Panigale, Italie (16140): visibility: 17.10.2018 08:00:00 - 23.10.2018 08:00:00 (CEST)Bologna/Borgo Panigale, Italie (16140): Quantités de précipitations: 17.10.2018 08:00:00 - 23.10.2018 08:00:00 (CEST)
Date & Time tt [°C] td [°C] ff [km/h] ff [knt] dd ppp [hPa] vv [km] rr [mm]
23.10.2018 08:00:00 6,5 5,1 4 2 - 1024,9 10 -
23.10.2018 07:00:00 8,0 5,0 5 3 W - 10 -
23.10.2018 06:00:00 8,0 5,0 9 5 W - 10 -
23.10.2018 05:00:00 7,9 5,2 4 2 - 1024,1 10 0,0
23.10.2018 04:00:00 10,0 6,0 9 5 NW - 10 -
23.10.2018 03:00:00 10,0 6,0 8 4 W - 10 -
23.10.2018 02:00:00 9,2 5,6 9 5 W 1024,8 10 -
23.10.2018 01:00:00 10,0 6,0 11 6 W - 10 -
23.10.2018 00:00:00 12,0 7,0 9 5 NNW - 10 -
22.10.2018 23:00:00 11,9 6,6 9 5 WNW 1023,9 10 0,0
22.10.2018 22:00:00 12,0 6,0 8 4 NW - 10 -
22.10.2018 21:00:00 13,0 7,0 5 3 - - 10 -
22.10.2018 20:00:00 13,7 6,5 5 3 N 1022,1 10 -
22.10.2018 19:00:00 15,0 7,0 5 3 N - 10 -
22.10.2018 18:00:00 17,0 7,0 9 5 NNE - 10 -
22.10.2018 17:00:00 17,4 6,9 15 8 ENE 1020,8 10 0,0
22.10.2018 16:00:00 17,0 6,0 8 4 N - 10 -
22.10.2018 15:00:00 17,0 6,0 13 7 NNE - 10 -
22.10.2018 14:00:00 16,6 5,3 11 6 NNW 1021,8 10 -
22.10.2018 13:00:00 16,0 6,0 13 7 NW - 10 -
22.10.2018 12:00:00 15,0 7,0 13 7 W - 10 -
22.10.2018 11:00:00 12,8 6,4 13 7 WNW 1023,5 10 0,0
22.10.2018 10:00:00 11,0 6,0 11 6 W - 10 -
22.10.2018 09:00:00 9,0 6,0 9 5 W - 10 -
22.10.2018 08:00:00 7,4 4,6 11 6 W 1022,8 10 -
22.10.2018 07:00:00 7,0 5,0 11 6 W - 10 -
22.10.2018 06:00:00 7,0 5,0 9 5 SSW - 10 -
22.10.2018 05:00:00 6,5 4,8 9 5 W 1022,4 10 0,0
22.10.2018 04:00:00 7,0 5,0 8 4 W - 10 -
22.10.2018 03:00:00 8,0 6,0 9 5 WNW - 10 -
22.10.2018 02:00:00 7,0 5,4 5 3 WSW 1023,5 10 -
22.10.2018 01:00:00 8,0 6,0 11 6 SW - 10 -
22.10.2018 00:00:00 8,0 7,0 4 2 NW - 10 -
21.10.2018 23:00:00 8,9 6,6 9 5 N 1023,7 10 0,0
21.10.2018 22:00:00 11,0 6,0 4 2 - - 10 -
21.10.2018 21:00:00 12,0 7,0 15 8 SSE - 10 -
21.10.2018 20:00:00 12,1 8,1 28 15 ESE 1023,3 10 -
21.10.2018 19:00:00 13,0 9,0 29 16 ESE - 10 -
21.10.2018 18:00:00 13,0 10,0 34 18 E - 7 -
21.10.2018 17:00:00 16,4 10,7 26 14 E 1018,2 7 0,0
21.10.2018 16:00:00 20,0 12,0 13 7 E - 8 -
21.10.2018 15:00:00 20,0 12,0 4 2 - - 8 -
21.10.2018 14:00:00 18,7 12,1 4 2 - 1018,9 8 -
21.10.2018 13:00:00 18,0 12,0 8 4 WNW - 8 -
21.10.2018 12:00:00 - - - - - - - -
21.10.2018 11:00:00 16,1 11,2 8 4 WNW 1020,9 10 0,0
21.10.2018 10:00:00 14,0 11,0 8 4 SW - 8 -
21.10.2018 09:00:00 12,0 10,0 5 3 SW - 8 -
21.10.2018 08:00:00 10,2 9,1 2 1 - 1020,3 7 -
21.10.2018 07:00:00 12,0 10,0 2 1 - - 8 -
21.10.2018 06:00:00 12,0 10,0 8 4 SSW - 8 -
21.10.2018 05:00:00 12,3 10,4 11 6 SSW 1021,1 8 0,0
21.10.2018 04:00:00 13,0 11,0 11 6 SW - 8 -
21.10.2018 03:00:00 13,0 11,0 11 6 SSW - 10 -
21.10.2018 02:00:00 14,0 11,3 16 9 SSW 1022,7 10 -
21.10.2018 01:00:00 14,0 12,0 4 2 - - 10 -
21.10.2018 00:00:00 15,0 12,0 13 7 SSW - 10 -
20.10.2018 23:00:00 14,9 12,1 8 4 SW 1023,5 10 0,0
20.10.2018 22:00:00 15,0 12,0 9 5 SSW - 10 -
20.10.2018 21:00:00 16,0 12,0 11 6 SSW - 10 -
20.10.2018 20:00:00 16,9 12,5 8 4 SSW 1022,8 10 -
20.10.2018 19:00:00 18,0 13,0 0 0 N - 10 -
20.10.2018 18:00:00 22,0 12,0 4 2 NE - 10 -
20.10.2018 17:00:00 22,7 12,2 4 2 - 1022,1 10 0,0
20.10.2018 16:00:00 22,0 12,0 4 2 - - 10 -
20.10.2018 15:00:00 22,0 12,0 8 4 W - 10 -
20.10.2018 14:00:00 21,8 12,9 5 3 - 1023,6 8 -
20.10.2018 13:00:00 20,0 13,0 9 5 NNW - 8 -
20.10.2018 12:00:00 19,0 13,0 9 5 NW - 8 -
20.10.2018 11:00:00 18,3 13,0 9 5 W 1024,1 6 0,0
20.10.2018 10:00:00 15,0 12,0 5 3 SW - 5 -
20.10.2018 09:00:00 13,0 11,0 5 3 SW - 4,0 -
20.10.2018 08:00:00 11,6 10,6 5 3 SW 1022,5 4,0 -
20.10.2018 07:00:00 13,0 11,0 4 2 - - 3,5 -
20.10.2018 06:00:00 12,0 11,0 4 2 - - 3,0 -
20.10.2018 05:00:00 12,3 11,0 4 2 WSW 1021,4 4,0 0,0
20.10.2018 04:00:00 13,0 11,0 8 4 SW - 4,5 -
20.10.2018 03:00:00 13,0 11,0 8 4 SW - 4,5 -
20.10.2018 02:00:00 14,2 12,2 9 5 SW 1021,2 6 -
20.10.2018 01:00:00 15,0 13,0 5 3 SW - 6 -
20.10.2018 00:00:00 15,0 13,0 9 5 SW - 7 -
19.10.2018 23:00:00 15,8 13,2 5 3 SW 1020,3 7 0,0
19.10.2018 22:00:00 16,0 13,0 5 3 SSW - 7 -
19.10.2018 21:00:00 17,0 13,0 9 5 SSW - 7 -
19.10.2018 20:00:00 17,2 12,7 4 2 SSW 1019,2 7 -
19.10.2018 19:00:00 19,0 13,0 2 1 - - 7 -
19.10.2018 18:00:00 22,0 13,0 4 2 - - 7 -
19.10.2018 17:00:00 23,2 13,1 5 3 NW 1017,9 7 0,0
19.10.2018 16:00:00 23,0 13,0 9 5 NW - 7 -
19.10.2018 15:00:00 23,0 13,0 5 3 - - 7 -
19.10.2018 14:00:00 23,1 14,2 8 4 NW 1018,3 7 -
19.10.2018 13:00:00 21,0 14,0 11 6 WNW - 6 -
19.10.2018 12:00:00 20,0 14,0 9 5 W - 7 -
19.10.2018 11:00:00 18,3 13,9 9 5 W 1019,5 7 0,0
19.10.2018 10:00:00 16,0 13,0 4 2 - - 6 -
19.10.2018 09:00:00 14,0 13,0 4 2 W - 4,0 -
19.10.2018 08:00:00 12,9 11,9 5 3 W 1018,0 4,0 -
19.10.2018 07:00:00 13,0 12,0 5 3 WSW - 5 -
19.10.2018 06:00:00 14,0 12,0 5 3 SW - 4,0 -
19.10.2018 05:00:00 13,9 12,6 9 5 WSW 1017,7 3,0 0,0
19.10.2018 04:00:00 14,0 13,0 5 3 WSW - 4,0 -
19.10.2018 03:00:00 15,0 13,0 5 3 SW - 5 -
19.10.2018 02:00:00 15,1 13,4 5 3 SW 1017,6 6 -
19.10.2018 01:00:00 15,0 14,0 9 5 SW - 7 -
19.10.2018 00:00:00 16,0 14,0 8 4 SW - 7 -
18.10.2018 23:00:00 15,7 13,7 8 4 SW 1016,9 8 0,0
18.10.2018 22:00:00 17,0 14,0 8 4 SW - 8 -
18.10.2018 21:00:00 18,0 15,0 8 4 SW - 8 -
18.10.2018 20:00:00 18,0 14,1 2 1 - 1015,8 8 -
18.10.2018 19:00:00 19,0 14,0 2 1 N - 8 -
18.10.2018 18:00:00 21,0 14,0 4 2 NE - 8 -
18.10.2018 17:00:00 22,0 13,8 5 3 NNE 1015,5 8 0,0
18.10.2018 16:00:00 22,0 14,0 8 4 NNE - 8 -
18.10.2018 15:00:00 22,0 14,0 4 2 - - 8 -
18.10.2018 14:00:00 22,0 14,0 9 5 N - 8 -
18.10.2018 13:00:00 21,0 14,0 5 3 NW - 6 -
18.10.2018 12:00:00 20,0 15,0 8 4 NW - 5 -
18.10.2018 11:00:00 19,3 14,7 11 6 W 1017,4 5 0,0
18.10.2018 10:00:00 18,0 15,0 9 5 W - 5 -
18.10.2018 09:00:00 17,0 15,0 4 2 - - 6 -
18.10.2018 08:00:00 16,3 14,5 5 3 WSW 1017,1 5 -
18.10.2018 07:00:00 16,0 14,0 9 5 WSW - 7 -
18.10.2018 06:00:00 16,0 14,0 5 3 WSW - 4,5 -
18.10.2018 05:00:00 15,8 14,5 8 4 W 1017,2 7 0,0
18.10.2018 04:00:00 - - - - - - - -
18.10.2018 03:00:00 - - - - - - - -
18.10.2018 02:00:00 15,9 14,6 8 4 WSW 1018,3 - -
18.10.2018 01:00:00 16,0 15,0 9 5 WSW - 4,5 -
18.10.2018 00:00:00 16,0 15,0 5 3 WSW - 6 -
17.10.2018 23:00:00 16,3 14,5 9 5 SSW 1019,0 8 0,0
17.10.2018 22:00:00 17,0 15,0 8 4 SSW - 7 -
17.10.2018 21:00:00 17,0 14,0 5 3 WSW - 10 -
17.10.2018 20:00:00 17,6 13,6 8 4 WSW 1018,6 8 -
17.10.2018 19:00:00 18,0 13,0 4 2 WNW - 7 -
17.10.2018 18:00:00 18,0 13,0 4 2 WNW - 8 -
17.10.2018 17:00:00 18,5 13,2 4 2 - 1018,3 8 0,0
17.10.2018 16:00:00 18,0 14,0 5 3 NW - 6 -
17.10.2018 15:00:00 18,0 14,0 8 4 W - 5 -
17.10.2018 14:00:00 17,7 14,2 8 4 W 1019,4 4,5 -
17.10.2018 13:00:00 18,0 14,0 8 4 W - 4,5 -
17.10.2018 12:00:00 17,0 14,0 9 5 W - 4,0 -
17.10.2018 11:00:00 16,5 14,6 5 3 WSW 1020,4 3,0 0,0
17.10.2018 10:00:00 17,0 15,0 4 2 - - 3,0 -
17.10.2018 09:00:00 16,0 15,0 2 1 - - 2,5 -
17.10.2018 08:00:00 15,9 14,2 4 2 W 1019,7 3,0 -

tt = Température de l'air
td = dewpoint
ff = Vitesse du vent
dd = Direction du vent
ppp = reduced air pressure
vv = visibility
rr = Quantités de précipitations

stations d'obs. à proximité